Weather History for Findlay, OH

Change the Weather History Date:

Saturday, August 23, 2014

  Actual Average Record
Temperature  
Mean Temperature 76 °F -  
Max Temperature 84 °F 79 °F 94 °F (1959)
Min Temperature 68 °F 60 °F 48 °F (1951)
Cooling Degree Days 11    
Growing Degree Days 26 (Base 50)    
Moisture  
Dew Point 69 °F    
Average Humidity 84    
Maximum Humidity 97    
Minimum Humidity 65    
Precipitation  
Precipitation 0.00 in - - ()
Sea Level Pressure  
Sea Level Pressure 30.00 in    
Wind  
Wind Speed 6 mph (ENE)    
Max Wind Speed 15 mph    
Max Gust Speed -    
Visibility 6 miles    
Events Fog    
Averages and records for this station are not official NWS values.
T = Trace of Precipitation, MM = Missing Value Source: NWS Daily Summary

Daily Weather History Graph

Daily Weather History Graph

Search for Another Location

Airport:

Trip Planner

Search our weather history database for the weather conditions in past years. The results will help you decide how hot, cold, wet, or windy it might be!

Date:

Astronomy

Aug. 23, 2014 Rise Set
Actual Time 6:52 AM EDT 8:21 PM EDT
Civil Twilight 6:23 AM EDT 8:50 PM EDT
Nautical Twilight 5:48 AM EDT 9:24 PM EDT
Astronomical Twilight 5:11 AM EDT 10:01 PM EDT
Moon 5:07 AM EDT (8/23) 7:05 PM EDT (8/23)
Length of Visible Light 14h 26m
Length of Day
13h 29m
Waning Crescent, 3% of the Moon is Illuminated
Aug 23
Waning Crescent
Aug 25
New
Sep 2
First Quarter
Sep 8
Full
Sep 15
Last Quarter

Hourly Weather History & Observations

Time (EDT) Temp. Heat Index Dew Point Humidity Pressure Visibility Wind Dir Wind Speed Gust Speed Precip Events Conditions
12:53 AM 73.0 °F - 70.0 °F 90% 29.98 in 6.0 mi East 4.6 mph - N/A   Partly Cloudy
1:53 AM 73.0 °F - 70.0 °F 90% 29.96 in 6.0 mi ENE 4.6 mph - N/A   Partly Cloudy
2:53 AM 72.0 °F - 69.1 °F 91% 29.96 in 5.0 mi NE 4.6 mph - N/A   Clear
3:53 AM 69.1 °F - 66.9 °F 93% 29.96 in 4.0 mi Calm Calm - N/A   Clear
4:07 AM 70.0 °F - 68.0 °F 93% 29.98 in 1.8 mi Calm Calm - N/A   Clear
4:15 AM 68.0 °F - 66.9 °F 96% 29.99 in 0.5 mi South 3.5 mph - N/A Fog Fog
4:29 AM 68.0 °F - 66.0 °F 93% 29.99 in 1.0 mi Calm Calm - N/A   Clear
4:36 AM 69.1 °F - 66.9 °F 93% 29.98 in 3.0 mi ENE 3.5 mph - N/A   Clear
5:53 AM 70.0 °F - 68.0 °F 93% 29.96 in 3.0 mi NE 4.6 mph - N/A   Clear
6:40 AM 70.0 °F - 68.0 °F 93% 30.00 in 2.5 mi ENE 5.8 mph - N/A   Scattered Clouds
6:50 AM 71.6 °F - 69.8 °F 94% 30.01 in 1.8 mi ENE 6.9 mph - N/A   Mostly Cloudy
6:51 AM 71.1 °F - 69.1 °F 93% 29.98 in 1.8 mi ENE 5.8 mph - N/A   Mostly Cloudy
7:16 AM 70.0 °F - 69.1 °F 97% 30.01 in 0.2 mi East 4.6 mph - N/A Fog Fog
7:53 AM 70.0 °F - 69.1 °F 97% 29.99 in 0.5 mi East 5.8 mph - N/A Fog Fog
8:04 AM 70.0 °F - 69.1 °F 97% 30.01 in 1.0 mi ENE 5.8 mph - N/A   Overcast
8:17 AM 71.1 °F - 69.1 °F 93% 30.01 in 0.8 mi ENE 4.6 mph - N/A   Overcast
8:53 AM 71.1 °F - 69.1 °F 93% 29.99 in 1.0 mi East 5.8 mph - N/A   Overcast
9:02 AM 71.1 °F - 69.1 °F 93% 30.02 in 0.8 mi ENE 8.1 mph - N/A   Overcast
9:12 AM 71.1 °F - 70.0 °F 96% 30.02 in 1.2 mi East 8.1 mph - N/A   Overcast
9:29 AM 71.1 °F - 69.1 °F 93% 30.02 in 2.5 mi ENE 10.4 mph - N/A   Overcast
9:36 AM 71.1 °F - 69.1 °F 93% 30.02 in 4.0 mi East 8.1 mph - N/A   Overcast
9:44 AM 72.0 °F - 70.0 °F 93% 30.02 in 4.0 mi East 6.9 mph - N/A   Overcast
9:53 AM 72.0 °F - 70.0 °F 93% 30.00 in 5.0 mi East 9.2 mph - N/A   Overcast
10:03 AM 72.0 °F - 70.0 °F 93% 30.02 in 5.0 mi ENE 9.2 mph - N/A   Overcast
10:53 AM 75.0 °F - 70.0 °F 84% 30.00 in 7.0 mi ENE 8.1 mph - N/A   Overcast
11:23 AM 75.9 °F - 70.0 °F 82% 30.04 in 9.0 mi East 4.6 mph - N/A   Overcast
11:53 AM 77.0 °F - 70.0 °F 79% 30.02 in 10.0 mi ENE 4.6 mph - N/A   Overcast
12:02 PM 78.1 °F - 70.0 °F 76% 30.05 in 10.0 mi East 4.6 mph - N/A   Overcast
12:36 PM 79.0 °F - 71.1 °F 77% 30.03 in 10.0 mi NE 6.9 mph - N/A   Scattered Clouds
12:53 PM 80.1 °F 83.2 °F 70.0 °F 71% 30.01 in 10.0 mi East 5.8 mph - N/A   Mostly Cloudy
1:38 PM 80.1 °F 83.2 °F 70.0 °F 71% 30.03 in 10.0 mi East 8.1 mph - N/A   Overcast
1:53 PM 82.0 °F 86.3 °F 71.1 °F 69% 30.01 in 10.0 mi ENE 6.9 mph - N/A   Mostly Cloudy
2:04 PM 81.0 °F 84.4 °F 70.0 °F 69% 30.03 in 10.0 mi ENE 6.9 mph - N/A   Mostly Cloudy
2:22 PM 82.0 °F 85.9 °F 70.0 °F 67% 30.03 in 9.0 mi NE 8.1 mph - N/A   Mostly Cloudy
2:53 PM 82.9 °F 87.0 °F 70.0 °F 65% 30.01 in 10.0 mi Variable 3.5 mph - N/A   Mostly Cloudy
3:04 PM 81.0 °F 84.1 °F 69.1 °F 67% 30.03 in 9.0 mi ENE 6.9 mph - N/A   Mostly Cloudy
3:12 PM 82.0 °F 85.9 °F 70.0 °F 67% 30.03 in 9.0 mi ENE 6.9 mph - N/A   Mostly Cloudy
3:53 PM 84.0 °F 89.0 °F 71.1 °F 65% 30.00 in 10.0 mi NE 9.2 mph - N/A   Scattered Clouds
5:53 PM 81.0 °F 84.4 °F 70.0 °F 69% 29.97 in 10.0 mi NNE 13.8 mph - N/A   Mostly Cloudy
6:53 PM 78.1 °F - 68.0 °F 71% 29.99 in 10.0 mi NE 15.0 mph - N/A   Clear
7:53 PM 75.0 °F - 66.0 °F 73% 29.99 in 10.0 mi NE 13.8 mph - N/A   Clear
8:53 PM 73.0 °F - 64.9 °F 76% 30.00 in 10.0 mi ENE 9.2 mph - N/A   Clear
9:53 PM 71.1 °F - 66.0 °F 84% 30.00 in 10.0 mi ENE 9.2 mph - N/A   Clear
10:53 PM 69.1 °F - 64.9 °F 87% 30.00 in 10.0 mi East 11.5 mph - N/A   Clear
11:53 PM 68.0 °F - 64.9 °F 90% 30.01 in 10.0 mi ENE 8.1 mph - N/A   Clear